Regional Weather Roundup
Issued by NWS

Home | Current Version | Previous Version | Graphics & Text | Print | Product List | Glossary On
Versions: 1 2 3 4 5 6 7 8 9 10 11 12 13 14 15 16 17 18 19 20 21 22 23 24 25 26 27 28 29 30 31 32 33 34 35 36 37 38 39 40 41 42 43 44 45 46 47 48 49 50
000
ASUS43 KOAX 302310
RWRNE

WEATHER ROUNDUP FOR NEBRASKA
NATIONAL WEATHER SERVICE OMAHA NE
600 PM CDT MON MAY 30 2016

NOTES: SATELLITE DATA IS BEING USED TO AUGMENT CLOUD COVER ABOVE
       12000 FEET.
       "FAIR" INDICATES FEW OR NO CLOUDS BELOW 12,000 FEET WITH NO
       SIGNIFICANT WEATHER AND/OR OBSTRUCTIONS TO VISIBILITY.

  * THESE STATIONS DO NOT REPORT WEATHER SUCH AS RAIN...SNOW OR FOG.

NEZ001>004-019>022-054>056-310000-
NEBRASKA PANHANDLE

CITY           SKY/WX    TMP DP  RH WIND       PRES   REMARKS
SCOTTSBLUFF    CLOUDY    71  44  37 SW9       29.89F
ALLIANCE       CLOUDY    69  43  38 SW17      29.88F
CHADRON        CLOUDY    78  43  28 NW16G25   29.85F
KIMBALL        CLOUDY    67  44  43 W5        29.95F
SIDNEY         CLOUDY    58  50  75 N7        29.96F
$$

NEZ057>060-069>072-079>082-310000-
SOUTHWEST NEBRASKA

CITY           SKY/WX    TMP DP  RH WIND       PRES   REMARKS
NORTH PLATTE   SUNNY     80  57  45 S13       29.82F
IMPERIAL       CLOUDY    79  56  45 S9        29.82F
LEXINGTON      SUNNY     81  55  40 S15G23    29.84S
MCCOOK         CLOUDY    80  57  45 S13G18    29.82F
OGALLALA       CLOUDY    65  48  55 W22G35    29.92R
$$

NEZ005>010-023>029-035>040-094-310000-
NORTH CENTRAL NEBRASKA

CITY           SKY/WX    TMP DP  RH WIND       PRES   REMARKS
VALENTINE      TSTM      63  53  70 S16       29.80S
AINSWORTH      CLOUDY    75  55  50 S8        29.81S
BROKEN BOW     SUNNY     82  56  40 S16G30    29.83F
O`NEILL        SUNNY     82  57  43 S8        29.81F
ORD            SUNNY     83  54  36 S12G23    29.80F
THEDFORD       CLOUDY    80  54  39 S14       29.83F
$$

NEZ041-046>049-061>064-073>077-083>087-310000-
SOUTH CENTRAL NEBRASKA

CITY           SKY/WX    TMP DP  RH WIND       PRES   REMARKS
GRAND ISLAND   SUNNY     83  54  36 S18G25    29.84F
AURORA         SUNNY     82  56  40 S18G26    29.84F
HASTINGS       SUNNY     81  58  45 S12G22    29.85F
HEBRON         SUNNY     82  56  40 S14       29.86F
HOLDREGE       SUNNY     81  53  37 S16G26    29.85F
KEARNEY *      SUNNY     82  54  36 S21G28    29.85F
YORK           SUNNY     82  55  39 S14       29.85F
$$

NEZ011>018-030>034-042>045-310000-
NORTHEAST NEBRASKA

CITY           SKY/WX    TMP DP  RH WIND       PRES   REMARKS
NORFOLK        SUNNY     83  55  38 S16G23    29.81F
ALBION         SUNNY     82  56  40 S10G17    29.82F
BLAIR          TSTM      71  64  79 S15G22    29.88S
FREMONT        MOSUNNY   81  58  46 SE16G24   29.85S
TEKAMAH        LGT RAIN  73  60  63 S15G32    29.83S
WAYNE          MOSUNNY   84  57  39 S20       29.81F
$$

NEZ050>053-065>068-078-088>093-310000-
SOUTHEAST NEBRASKA

CITY           SKY/WX    TMP DP  RH WIND       PRES   REMARKS
LINCOLN        MOSUNNY   85  59  41 S16G23    29.85F
OMAHA EPPLEY   TSTM      76  61  59 S10       29.88R
BEATRICE       SUNNY     83  59  44 S16       29.87S
FALLS CITY     TSTM      79  61  53 S21G33    29.88S
NEBRASKA CITY  DRIZZLE   69  62  79 SW5       29.89F
PLATTSMOUTH    RAIN      73  69  88 SE3       29.89F
$$

NEZ044-045-051>053-067-310000-
OMAHA AREA

CITY           SKY/WX    TMP DP  RH WIND       PRES   REMARKS
OMAHA EPPLEY   TSTM      76  61  59 S10       29.88R
BLAIR          TSTM      71  64  79 S15G22    29.88S
FREMONT        MOSUNNY   81  58  46 SE16G24   29.85S
MILLARD        TSTM      71  65  81 SE8       29.87F
OFFUTT AFB     TSTM      71  64  76 SE8       29.87F
PLATTSMOUTH    RAIN      73  69  88 SE3       29.89F
WAHOO          FAIR      82  57  42 SE18G28   29.85S
$$




USA.gov is the U.S. government's official web portal to all federal, state and local government web resources and services.